EW5860 Weather Reports


time (UTC)temp
C
wind
direction
speed
KPH
gust
KPH
rain 1hr
cm
rain 24hr
cm
rain mn
cm
humidity
%
barometer
mb
20260504044554 10 193 6.4 16.1 0.00 0.00 0.00 49 1014.3
20260504043056 10 209 4.8 16.1 0.00 0.00 0.00 50 1014.3
20260504041548 10 210 9.7 17.7 0.00 0.00 0.00 49 1014.1
20260504040046 10 212 8.0 16.1 0.00 0.00 0.00 50 1014.0
20260504034552 10 217 8.0 16.1 0.00 0.00 0.00 50 1013.8
20260504033043 10 176 6.4 12.9 0.00 0.00 0.00 49 1013.8
20260504031544 10 202 6.4 14.5 0.00 0.00 0.00 49 1013.8
20260504030042 10 206 6.4 11.3 0.00 0.00 0.00 50 1013.7
20260504024547 10 217 3.2 11.3 0.00 0.00 0.00 49 1013.7
20260504023041 11 202 3.2 9.7 0.00 0.00 0.00 48 1013.8
20260504021541 11 224 3.2 9.7 0.00 0.00 0.00 48 1013.8
20260504020042 10 205 1.6 4.8 0.00 0.00 0.00 52 1013.7
20260504014541 10 191 1.6 9.7 0.00 0.00 0.00 49 1013.6
20260504013054 10 156 1.6 8.0 0.00 0.00 0.00 49 1013.5
20260504011538 11 213 1.6 3.2 0.00 0.00 0.00 48 1013.5
20260504010040 11 222 1.6 4.8 0.00 0.00 0.00 46 1013.4
20260504004536 12 221 1.6 6.4 0.00 0.00 0.00 44 1013.3
20260504003036 12 223 1.6 6.4 0.00 0.00 0.00 42 1013.0
20260504001538 13 221 1.6 11.3 0.00 0.00 0.00 40 1012.8
20260504000034 13 223 1.6 6.4 0.00 0.00 0.00 39 1012.7
20260503234634 13 192 1.6 9.7 0.00 0.00 0.00 37 1012.5
20260503233033 15 240 3.2 14.5 0.00 0.00 0.00 36 1012.5
20260503231533 15 196 4.8 16.1 0.00 0.00 0.00 35 1012.4
20260503230041 15 188 8.0 24.1 0.00 0.00 0.00 34 1012.3
20260503224531 15 266 8.0 19.3 0.00 0.00 0.00 33 1012.2
20260503223030 15 261 6.4 14.5 0.00 0.00 0.00 34 1012.2
20260503221531 15 252 1.6 14.5 0.00 0.00 0.00 34 1012.2
20260503220028 15 213 8.0 20.9 0.00 0.00 0.00 33 1012.3
20260503214537 15 252 9.7 22.5 0.00 0.00 0.00 32 1012.3
20260503213028 15 224 4.8 17.7 0.00 0.00 0.00 33 1012.3
20260503211528 15 284 3.2 19.3 0.00 0.00 0.00 32 1012.2
20260503210025 15 266 11.3 25.7 0.00 0.00 0.00 31 1012.2
20260503204524 15 226 4.8 30.6 0.00 0.00 0.00 31 1012.2
20260503203032 15 263 6.4 20.9 0.00 0.00 0.00 31 1012.3
20260503201522 15 230 4.8 24.1 0.00 0.00 0.00 33 1012.4
20260503200020 14 262 12.9 24.1 0.00 0.00 0.00 33 1012.6
20260503194518 14 225 8.0 17.7 0.00 0.00 0.00 34 1012.7
20260503193033 13 320 12.9 35.4 0.00 0.00 0.00 34 1013.0
20260503191532 13 258 9.7 17.7 0.00 0.00 0.00 34 1013.0
20260503190025 13 261 9.7 27.4 0.00 0.00 0.00 36 1013.3
20260503184513 13 219 12.9 30.6 0.00 0.00 0.00 35 1013.4
20260503183012 12 310 6.4 24.1 0.00 0.00 0.00 37 1013.6
20260503181511 13 254 12.9 27.4 0.00 0.00 0.00 35 1013.6
20260503180009 12 37 3.2 32.2 0.00 0.00 0.00 36 1013.5
20260503174509 12 261 11.3 32.2 0.00 0.00 0.00 36 1013.6
20260503173009 12 201 8.0 32.2 0.00 0.00 0.00 37 1013.7
20260503171506 12 215 4.8 35.4 0.00 0.00 0.00 37 1013.9
20260503160108 10 327 4.8 19.3 0.00 0.00 0.00 44 1014.4
20260503081514 5 271 0.0 4.8 0.00 0.00 0.00 74 1012.0
20260503071506 6 312 0.0 1.6 0.00 0.00 0.00 74 1011.5